THY255 LTFM-LTBS

Flight info

Callsign THY255
Flight time 0h 21m
Altitude 38000
Route RATVU1G/17R RATVU UT35 NUMTI UT241 DEN/N0447F370 UW87 LAVTA UT44 ATSAL
Aircraft A319/M-SDE3FGHIRWY/LB1

Departure

Time 2026-04-24 13:08
Airport İstanbul Airport (LTFM)

Arrival

Time 2026-04-24 13:30
Airport Dalaman International Airport (LTBS)
Time Latitude Longitude Altitude Speed Heading
2026-04-24 12:48 41.27472 28.73314 301 ft 0 kts 360°
2026-04-24 12:56 41.27449 28.73316 301 ft 4 kts 344°
2026-04-24 12:56 41.27424 28.73330 302 ft 4 kts 324°
2026-04-24 12:56 41.27405 28.73354 302 ft 4 kts 303°
2026-04-24 12:57 41.27395 28.73383 303 ft 2 kts 270°
2026-04-24 12:57 41.27395 28.73385 303 ft 2 kts 269°
2026-04-24 12:58 41.27395 28.73378 303 ft 4 kts 269°
2026-04-24 12:59 41.27394 28.73318 303 ft 9 kts 269°
2026-04-24 12:59 41.27393 28.73214 302 ft 11 kts 269°
2026-04-24 12:59 41.27393 28.73187 302 ft 0 kts 269°
2026-04-24 12:59 41.27393 28.73181 302 ft 2 kts 269°
2026-04-24 13:00 41.27393 28.73144 302 ft 8 kts 272°
2026-04-24 13:00 41.27443 28.73093 302 ft 11 kts 353°
2026-04-24 13:00 41.27527 28.73093 300 ft 9 kts 359°
2026-04-24 13:00 41.27566 28.73091 301 ft 4 kts 357°
2026-04-24 13:01 41.27593 28.73046 299 ft 11 kts 283°
2026-04-24 13:01 41.27653 28.72974 299 ft 14 kts 360°
2026-04-24 13:01 41.27767 28.72972 293 ft 18 kts 359°
2026-04-24 13:01 41.27902 28.72969 291 ft 21 kts 359°
2026-04-24 13:02 41.28045 28.72967 284 ft 19 kts 359°
2026-04-24 13:02 41.28197 28.72965 277 ft 24 kts 359°
2026-04-24 13:02 41.28356 28.72962 269 ft 25 kts 359°
2026-04-24 13:02 41.28533 28.72959 263 ft 24 kts 359°
2026-04-24 13:03 41.28691 28.72956 262 ft 21 kts 359°
2026-04-24 13:03 41.28848 28.72952 260 ft 24 kts 359°
2026-04-24 13:03 41.29035 28.72949 248 ft 28 kts 359°
2026-04-24 13:03 41.29232 28.72944 234 ft 28 kts 359°
2026-04-24 13:04 41.29363 28.72941 225 ft 16 kts 359°
2026-04-24 13:04 41.29424 28.72940 224 ft 0 kts 359°
2026-04-24 13:05 41.29425 28.72940 224 ft 1 kts 359°
2026-04-24 13:06 41.29462 28.72936 224 ft 11 kts 348°
2026-04-24 13:06 41.29494 28.72816 226 ft 16 kts 271°
2026-04-24 13:06 41.29492 28.72659 228 ft 20 kts 269°
2026-04-24 13:06 41.29474 28.72473 230 ft 17 kts 231°
2026-04-24 13:07 41.29429 28.72461 230 ft 4 kts 180°
2026-04-24 13:07 41.29393 28.72461 228 ft 7 kts 180°
2026-04-24 13:07 41.29243 28.72462 233 ft 46 kts 178°
2026-04-24 13:07 41.28733 28.72474 250 ft 100 kts 179°
2026-04-24 13:08 41.27870 28.72491 279 ft 147 kts 179°
2026-04-24 13:08 41.26780 28.72516 673 ft 159 kts 180°
2026-04-24 13:08 41.25657 28.72573 1378 ft 161 kts 178°
2026-04-24 13:09 41.23344 28.72696 2437 ft 182 kts 179°
2026-04-24 13:09 41.21994 28.72757 2825 ft 206 kts 179°
2026-04-24 13:09 41.19572 28.72748 3525 ft 245 kts 189°
2026-04-24 13:09 41.16368 28.70756 5177 ft 267 kts 223°
2026-04-24 13:10 41.11925 28.66435 7907 ft 284 kts 198°
2026-04-24 13:10 41.03780 28.67119 10928 ft 322 kts 173°
2026-04-24 13:10 40.94676 28.68660 14062 ft 337 kts 173°
2026-04-24 13:10 40.85095 28.70262 16674 ft 355 kts 174°
2026-04-24 13:11 40.75024 28.71811 19084 ft 373 kts 174°
2026-04-24 13:11 40.64555 28.73448 21394 ft 385 kts 173°
2026-04-24 13:11 40.53979 28.76305 23591 ft 396 kts 152°
2026-04-24 13:11 40.45369 28.85640 25458 ft 407 kts 138°
2026-04-24 13:12 40.36772 28.95564 27217 ft 418 kts 138°
2026-04-24 13:12 40.26888 29.03770 28931 ft 427 kts 166°
2026-04-24 13:12 40.16053 29.09589 30523 ft 439 kts 142°
2026-04-24 13:12 40.06752 29.20016 32299 ft 438 kts 141°
2026-04-24 13:13 39.97454 29.30282 34100 ft 438 kts 141°
2026-04-24 13:13 39.87711 29.39501 35484 ft 432 kts 160°
2026-04-24 13:13 39.76665 29.45495 36785 ft 430 kts 159°
2026-04-24 13:13 39.65484 29.50038 38038 ft 416 kts 185°
2026-04-24 13:14 39.55329 29.44602 37944 ft 385 kts 217°
2026-04-24 13:14 39.46454 29.36869 37926 ft 390 kts 217°
2026-04-24 13:14 39.28363 29.21053 37958 ft 398 kts 217°
2026-04-24 13:15 39.10292 29.05346 37906 ft 388 kts 217°
2026-04-24 13:15 39.01377 28.97634 38063 ft 388 kts 217°
2026-04-24 13:15 38.92421 28.89920 37984 ft 379 kts 217°
2026-04-24 13:16 38.74686 28.74678 37908 ft 386 kts 217°
2026-04-24 13:16 38.56287 28.60908 37963 ft 392 kts 191°
2026-04-24 13:17 38.45074 28.61831 36814 ft 411 kts 180°
2026-04-24 13:17 38.33802 28.63119 35504 ft 400 kts 181°
2026-04-24 13:17 38.22715 28.64441 33597 ft 398 kts 183°
2026-04-24 13:17 38.11895 28.65714 31808 ft 385 kts 184°
2026-04-24 13:18 38.01559 28.66926 30499 ft 364 kts 183°
2026-04-24 13:18 37.91511 28.68084 28915 ft 362 kts 184°
2026-04-24 13:18 37.81529 28.69249 27522 ft 357 kts 183°
2026-04-24 13:18 37.71316 28.70417 24972 ft 374 kts 182°
2026-04-24 13:19 37.61111 28.71152 23293 ft 362 kts 184°
2026-04-24 13:19 37.54467 28.71575 21968 ft 358 kts 183°
2026-04-24 13:19 37.42312 28.67894 19090 ft 335 kts 206°
2026-04-24 13:19 37.36610 28.65100 17220 ft 329 kts 205°
2026-04-24 13:20 37.28265 28.60943 14273 ft 315 kts 205°
2026-04-24 13:20 37.19904 28.59032 11294 ft 315 kts 166°
2026-04-24 13:20 37.12429 28.63503 8760 ft 304 kts 112°
2026-04-24 13:20 37.13064 28.73041 10057 ft 290 kts 81°
2026-04-24 13:21 37.13984 28.79842 11962 ft 303 kts 81°
2026-04-24 13:21 37.14717 28.85144 13430 ft 314 kts 80°
2026-04-24 13:21 37.15479 28.90629 13605 ft 322 kts 81°
2026-04-24 13:21 37.14850 28.96044 12942 ft 314 kts 120°
2026-04-24 13:22 37.12013 28.99996 12325 ft 303 kts 142°
2026-04-24 13:22 37.08895 29.03481 11728 ft 299 kts 142°
2026-04-24 13:22 37.05285 29.04787 11437 ft 265 kts 200°
2026-04-24 13:22 37.02530 29.02117 10892 ft 250 kts 226°
2026-04-24 13:23 37.00697 28.99907 10289 ft 248 kts 225°
2026-04-24 13:23 36.99441 28.98404 9851 ft 249 kts 225°
2026-04-24 13:23 36.98191 28.96909 9496 ft 248 kts 225°
2026-04-24 13:23 36.96947 28.95423 9136 ft 246 kts 224°
2026-04-24 13:24 36.95711 28.93947 8747 ft 245 kts 225°
2026-04-24 13:24 36.94475 28.92473 8352 ft 245 kts 224°
2026-04-24 13:24 36.93267 28.90990 8012 ft 243 kts 225°
2026-04-24 13:24 36.92072 28.89484 7648 ft 243 kts 226°
2026-04-24 13:25 36.90889 28.87979 7231 ft 244 kts 225°
2026-04-24 13:25 36.89695 28.86461 6693 ft 250 kts 225°
2026-04-24 13:25 36.88340 28.85151 6161 ft 247 kts 205°
2026-04-24 13:25 36.86716 28.84492 5583 ft 245 kts 195°
2026-04-24 13:26 36.85075 28.83925 4957 ft 242 kts 195°
2026-04-24 13:26 36.83469 28.83374 4352 ft 238 kts 195°
2026-04-24 13:26 36.85392 28.84080 4022 ft 229 kts 197°
2026-04-24 13:26 36.83815 28.83473 3672 ft 236 kts 197°
2026-04-24 13:27 36.82283 28.82889 3306 ft 225 kts 197°
2026-04-24 13:27 36.80797 28.82390 2804 ft 217 kts 194°
2026-04-24 13:27 36.79354 28.81959 2232 ft 212 kts 194°
2026-04-24 13:27 36.80439 28.82315 1939 ft 213 kts 194°
2026-04-24 13:28 36.78982 28.81879 1546 ft 211 kts 195°
2026-04-24 13:28 36.77618 28.81420 1173 ft 196 kts 197°
2026-04-24 13:28 36.76387 28.81004 1002 ft 171 kts 197°
2026-04-24 13:28 36.75286 28.80629 769 ft 152 kts 197°
2026-04-24 13:29 36.74319 28.80280 434 ft 139 kts 197°
2026-04-24 13:29 36.73430 28.79980 214 ft 128 kts 196°
2026-04-24 13:29 36.72574 28.79677 70 ft 126 kts 195°
2026-04-24 13:29 36.71795 28.79412 25 ft 102 kts 195°
2026-04-24 13:30 36.71240 28.79223 23 ft 67 kts 195°
2026-04-24 13:30 36.70835 28.79086 24 ft 47 kts 197°
2026-04-24 13:30 36.70631 28.78939 24 ft 2 kts 221°
2026-04-24 13:30 36.70613 28.78919 23 ft 6 kts 221°
2026-04-24 13:31 36.70574 28.78849 22 ft 14 kts 269°
2026-04-24 13:31 36.70646 28.78807 22 ft 14 kts 13°
2026-04-24 13:31 36.70757 28.78847 23 ft 20 kts 16°
2026-04-24 13:31 36.70897 28.78897 23 ft 22 kts 15°
2026-04-24 13:32 36.71053 28.78950 23 ft 24 kts 14°
2026-04-24 13:32 36.71210 28.79002 23 ft 23 kts 15°
2026-04-24 13:32 36.71330 28.78983 25 ft 18 kts 295°
2026-04-24 13:32 36.71386 28.78851 24 ft 17 kts 351°
2026-04-24 13:33 36.71495 28.78884 24 ft 11 kts 16°
2026-04-24 13:33 36.71554 28.78905 25 ft 7 kts 15°
2026-04-24 13:33 36.71610 28.78923 25 ft 9 kts 14°
2026-04-24 13:33 36.71677 28.78945 25 ft 11 kts 15°
2026-04-24 13:34 36.71758 28.78972 25 ft 14 kts 15°
2026-04-24 13:34 36.71862 28.79009 26 ft 17 kts 16°